Accueil
METAR-TAF:

METAR-TAF

Aéroports :

Melun, France

Aérodrome de Melun-Villaroche

latitude: 48-37N, longitude: 002-41E, altitude: 95 m

Observation

Le bulletin a été fait il y a 36 minutes, à 00:00 UTC
Vent 4 kt de nord-est, variant entre nord et est/nord-est
Température 0°C
Humidité 64%
Pression 1014 hPa
Visibilité 10 km ou plus
Ciel couvert à une hauteur de 3900 ft

METAR: LFPM 240000Z AUTO 04004KT 360V070 9999 OVC039 M00/M06 Q1014

Heure: 01:36 (00:36 UTC)


TAF: absent

Observations et prévisions météorologiques de plus de 4000 aéroports (messages METAR et TAF).

Les stations disponibles sont représentées par des disques jaunes et rouges sur la carte.

Passer la souris dessus pour voir le nom de la station.

Cliquer dessus pour voir les observations et prévisions météorologiques.

Pour changer de carte: cliquez sur les boutons verts avec une croix noire pour zoomer, sur le bouton vert avec un tiret pour effectuer un zoom arrière, ou sur les flèches vertes pour les cartes adjacentes.


METAR-TAF: